User: anonymous   Login
Location: Unspecified
(0.0000°N, 0.0000°E)
Time: 01:59:34
(UTC+00:00)
Language:

HO-68 - Orbit

View from above orbital plane
View from above orbital plane
View from above satellite
View from above satellite

Ground track
Ground track

The orbit data is extracted from the following two-line orbital elements,

1 36122U 09072B   16183.65143341 -.00000059  00000-0 -43517-4 0  9998
2 36122 100.1399 218.9216 0007332 325.7493  34.3140 13.16334704314517
Epoch (UTC): 01 July 2016 15:38:03
Eccentricity: 0.0007332
inclination: 100.1399°
perigee height: 1193 km
apogee height: 1204 km
right ascension of ascending node: 218.9216°
argument of perigee: 325.7493°
revolutions per day: 13.16334704
mean anomaly at epoch: 34.3140°
orbit number at epoch: 31451

The dashed part of the orbit path shows where the satellite is in the earth's shadow,  

DLR